Home > Weather > MD of Lunenburg > Past weeks

Flag for Canada Weather for the Past 2 Weeks in MD of Lunenburg, Nova Scotia, Canada

Now
26 °F

Chilly.


Feels Like: 19 °F
Forecast: 21 / 32 °F
Wind: 7 mph from North

Location: McNabs Island - AUT

Current Time: Feb 9, 2016 at 11:25:31 PM

Latest Report: Feb 9, 2016 at 10:00 PM


Visibility: N/A

Pressure: 29.42 "Hg

Humidity: 83%

Dew point: 22 °F

Location of MD of LunenburgLocation

Historic Weather in MD of Lunenburg — Graph

°F

MD of Lunenburg Temperature Yesterday

Maximum temperature yesterday: 26 °F (at 2:00 PM)
Minimum temperature yesterday: 19 °F (at 4:00 AM)
Average temperature yesterday: 23 °F

High & Low Weather Summary for the Past Weeks

 TemperatureHumidityPressure
High50 °F (Feb 4, 7:00 AM)100% (Jan 29, 6:00 PM)30.55 "Hg (Jan 29, 6:00 PM)
Low18 °F (Feb 3, 6:00 AM)39% (Feb 2, 3:00 PM)28.98 "Hg (Jan 29, 5:00 PM)
Average34 °F83%29.91 "Hg
* Reported Jan 25 9:00 PM — Feb 9 9:00 PM, MD of Lunenburg, Weather by CustomWeather, © 2016

Note: Actual official high and low records may vary slightly from our data, if they occured in-between our weather recording intervals... More about our weather records

Advertising

MD of Lunenburg Weather History for the Previous 24 Hours

 ConditionsComfort  
Time TempWeatherWind HumidityBarometerVisibility
9:00 PM
Tue, Feb 9
26 °FChilly.5 mph82%29.46 "HgN/A
8:00 PM27 °FChilly.6 mph81%29.48 "HgN/A
7:00 PM27 °FChilly.7 mph80%29.47 "HgN/A
6:00 PM28 °FChilly.5 mph79%29.53 "HgN/A
5:00 PM29 °FChilly.6 mph78%29.54 "HgN/A
4:00 PM29 °FChilly.6 mph78%29.54 "HgN/A
3:00 PM31 °FChilly.5 mph74%29.55 "HgN/A
2:00 PM31 °FChilly.2 mph73%29.59 "HgN/A
1:00 PM33 °FChilly.5 mph68%29.55 "HgN/A
12:00 PM29 °FChilly.6 mph78%29.59 "HgN/A
11:00 AM28 °FChilly.8 mph84%29.58 "HgN/A
10:00 AM27 °FChilly.8 mph91%29.57 "HgN/A
9:00 AM25 °FChilly.7 mph100%29.55 "HgN/A
8:00 AM25 °FChilly.9 mph93%29.52 "HgN/A
7:00 AM25 °FCold.12 mph96%29.50 "HgN/A
6:00 AM25 °FChilly.14 mph93%29.47 "HgN/A
5:00 AM26 °FChilly.13 mph95%29.45 "HgN/A
4:00 AM26 °FChilly.10 mph96%29.44 "HgN/A
3:00 AM26 °FChilly.9 mph96%29.43 "HgN/A
2:00 AM26 °FChilly.10 mph96%29.41 "HgN/A
1:00 AM28 °FChilly.10 mph89%29.39 "HgN/A
12:00 AM26 °FChilly.13 mph100%29.39 "HgN/A
11:00 PM
Mon, Feb 8
25 °FChilly.13 mph93%29.43 "HgN/A
Weather by CustomWeather, © 2016

See weather overviewHow to use our weather pages